Regional Weather Roundup
Issued by NWS

Home | Current Version | Previous Version | Graphics & Text | Print | Product List | Glossary On
Versions: 1 2 3 4 5 6 7 8 9 10 11 12 13 14 15 16 17 18 19 20 21 22 23 24 25 26 27 28 29 30 31 32 33 34 35 36 37 38 39 40 41 42 43 44 45 46 47 48 49 50
000
ASUS43 KFSD 291402
RWRSD

WEATHER ROUNDUP FOR SOUTH DAKOTA
NATIONAL WEATHER SERVICE SIOUX FALLS SD
900 AM CDT SAT APR 29 2017

NOTE: "FAIR" INDICATES FEW OR NO CLOUDS BELOW 12,000 FEET WITH NO
SIGNIFICANT WEATHER AND/OR OBSTRUCTIONS TO VISIBILITY.


SDZ001>005-009-010-012>017-291500-
NORTHWEST AND NORTH CENTRAL SOUTH DAKOTA

CITY           SKY/WX    TMP DP  RH WIND       PRES   REMARKS
BUFFALO          N/A     40  27  59 CALM      30.20R
FAITH            N/A     40  28  62 NW7       30.28R
MOBRIDGE       MOSUNNY   42  28  57 W3        30.28R
$$

SDZ012>016-024>037-041>051-057-063-072>074-291500-
SOUTHWEST AND SOUTH CENTRAL SOUTH DAKOTA

CITY           SKY/WX    TMP DP  RH WIND       PRES   REMARKS
RAPID CTY ARPT CLOUDY    40  26  57 W6        30.29R
PIERRE         MOSUNNY   40  22  48 CALM      30.29R
CUSTER         CLOUDY    32  12  43 NE8       30.23R WCI  25
ELLSWORTH AFB  CLOUDY    38  29  70 N7        30.28R
PHILIP         MOSUNNY   39  30  70 SW3       30.31R
PINE RIDGE     CLOUDY    35  29  78 CALM      30.28R
SPEARFISH      FAIR      34  23  64 CALM      30.29R
WINNER         PTSUNNY   40  25  55 N3        30.28
$$

SDZ004>011-016>023-039-040-291500-
NORTHEAST SOUTH DAKOTA

CITY           SKY/WX    TMP DP  RH WIND       PRES   REMARKS
ABERDEEN       MOSUNNY   39  28  64 NE3       30.33R
WATERTOWN      MOSUNNY   41  21  44 SE13      30.32R
BROOKINGS      CLOUDY    41  23  48 E14       30.30R
SISSETON         N/A     41  26  55 CALM      30.34R
$$

SDZ017-020-022-023-036>040-048>070-291500-
SOUTHEAST SOUTH DAKOTA

CITY           SKY/WX    TMP DP  RH WIND       PRES   REMARKS
SIOUX FALLS    PTSUNNY   42  29  59 NE13      30.26F
HURON          SUNNY     43  28  55 NE8       30.33R
CHAMBERLAIN    CLOUDY    44  25  47 N5        30.29R
MITCHELL       CLOUDY    39  27  62 NE8       30.31R
YANKTON        PTSUNNY   41  27  56 NE10      30.23S
$$

ABBREVIATIONS USED IN REMARKS
   TC - TEMPERATURE IN CELSIUS
  WCI - WIND CHILL INDEX
   HX - HEAT INDEX
  VSB - VISIBILITY





USA.gov is the U.S. government's official web portal to all federal, state and local government web resources and services.